Weather in Cartagena

Colombia     10°23′36″N   75°28′56″W
temp.,
°C
wind,
m/s
gust,
m/s
humid.,
%
clouds,
%
prec.,
mm/h
press.,
hPa
HPBL,
m
20 may, fri
fri2001:00+27nne238394 3.1 1010136
04:00+27w1180100 2.5 101039
07:00+28s347999 2.9 1011312
10:00+29ssw5573100 0.1 1013736
13:00+28wsw6576100 0.8 1012759
16:00+28w4377100 0.2 1010608
19:00+28wnw4477100 0.2 1012571
22:00+27nw3482100 1.6 1014194
21 may, sat
sat2101:00+27nw3481100 4.6 1013211
04:00+27n347882 0.1 1012433
07:00+27nne1178100 0.1 1013395
10:00+28ssw347470 0.0 1014679
13:00+29wsw5474100 0.0 1012579
16:00+28wnw447599 0.2 1011515
19:00+28n457934 0.2 1012551
22:00+27nne67850 0.0 1013431
22 may, sun
sun2201:00+27ne56842 0.6 1012267
04:00+27e12790 0.4 1011129
07:00+27sse33800 0.4 1013198
10:00+29s23705 0.0 1013549
13:00+28wnw547712 0.7 1012400
16:00+28n657825 0.7 1010684
19:00+28nne67798 0.7 1011611
22:00+27nne89849 0.0 1012650
23 may, mon
mon2301:00+27nne67855 0.0 1010490
04:00+27se228247 0.0 1009182
07:00+27s4481100 0.6 1011293
10:00+29ssw347374 0.0 1011719
13:00+29wsw557523 0.6 1010462
16:00+29w337211 1.6 1008616
19:00+28n337845 1.8 1010495
22:00+27ne458372 0.1 1011483
24 may, tue
tue2401:00+27ne4586100 1.6 1010312
04:00+27ne3382100 7.2 1009184
07:00+28sw2277100 9.7 1010359
10:00+28sw5575100 0.6 1011712
13:00+28wsw6675100 0.7 1010859
16:00+28wsw4475100 0.1 1008719
19:00+28w227686 0.1 1009423
22:00+28w2277100 0.0 1011432